Weather History for Nenana, AK

Change the Weather History Date:

Monday, March 18, 2013

  Actual Average Record
Temperature  
Mean Temperature 18 °F -  
Max Temperature 44 °F 19 °F 56 °F (1981)
Min Temperature -7 °F -4 °F -27 °F (2009)
Degree Days  
Heating Degree Days 46    
Moisture  
Dew Point -5 °F    
Average Humidity 59    
Maximum Humidity 94    
Minimum Humidity 37    
Precipitation  
Precipitation 0.08 in - - ()
Sea Level Pressure  
Sea Level Pressure 30.08 in    
Wind  
Wind Speed 2 mph (WNW)    
Max Wind Speed 8 mph    
Max Gust Speed -    
Visibility 10 miles    
Events Snow    
Averages and records for this station are not official NWS values.
T = Trace of Precipitation, MM = Missing Value Source: NWS Daily Summary

Daily Weather History Graph

Daily Weather History Graph

Search for Another Location

Airport:

Trip Planner

Search our weather history database for the weather conditions in past years. The results will help you decide how hot, cold, wet, or windy it might be!

Date:

Astronomy

Mar. 18, 2013 Rise Set
Actual Time 8:02 AM AKDT 8:07 PM AKDT
Civil Twilight 7:14 AM AKDT 8:56 PM AKDT
Nautical Twilight 6:15 AM AKDT 9:55 PM AKDT
Astronomical Twilight 5:09 AM AKDT 11:02 PM AKDT
Moon 9:54 AM AKDT (3/18) 4:28 AM AKDT (3/18)
Length of Visible Light 13h 41m
Length of Day
12h 05m
Waxing Crescent, 42% of the Moon is Illuminated
Mar 18
Waxing Crescent
Mar 19
First Quarter
Mar 27
Full
Apr 2
Last Quarter
Apr 10
New

Hourly Weather History & Observations

Time (AKDT) Temp. Windchill Dew Point Humidity Pressure Visibility Wind Dir Wind Speed Gust Speed Precip Events Conditions
12:53 AM -7.1 °F - -13.0 °F 75% 30.18 in 10.0 mi Calm Calm - N/A   Clear
1:53 AM -9.0 °F - -15.0 °F 75% 30.17 in 10.0 mi Calm Calm - N/A   Clear
2:53 AM -9.0 °F - -15.0 °F 75% 30.16 in 10.0 mi Calm Calm - N/A   Clear
3:53 AM -9.9 °F - -16.1 °F 74% 30.14 in 10.0 mi Calm Calm - N/A   Scattered Clouds
4:53 AM -11.0 °F - -17.0 °F 75% 30.13 in 10.0 mi Calm Calm - N/A   Clear
5:53 AM -11.9 °F - -18.0 °F 74% 30.12 in 10.0 mi Calm Calm - N/A   Partly Cloudy
6:53 AM -13.0 °F - -18.9 °F 75% 30.12 in 10.0 mi Calm Calm - N/A   Scattered Clouds
7:53 AM -13.0 °F - -18.9 °F 75% 30.10 in 10.0 mi Calm Calm - N/A   Scattered Clouds
8:53 AM -11.9 °F - -18.0 °F 74% 30.09 in 10.0 mi Calm Calm - N/A   Scattered Clouds
9:53 AM -7.1 °F - -13.0 °F 75% 30.09 in 10.0 mi Calm Calm - N/A   Clear
10:53 AM 3.9 °F - -6.0 °F 64% 30.07 in 10.0 mi Calm Calm - N/A   Scattered Clouds
11:53 AM 10.9 °F 4.7 °F -5.1 °F 49% 30.07 in 10.0 mi Variable 3.5 mph - N/A   Clear
12:53 PM 14.0 °F - -5.1 °F 43% 30.06 in 10.0 mi Calm Calm - N/A   Clear
1:53 PM 16.0 °F 8.8 °F -5.1 °F 39% 30.05 in 10.0 mi Variable 4.6 mph - N/A   Clear
2:53 PM 17.1 °F 6.6 °F -4.0 °F 39% 30.06 in 10.0 mi NNW 8.1 mph - N/A   Clear
3:53 PM 17.1 °F 6.6 °F -5.1 °F 37% 30.04 in 10.0 mi WNW 8.1 mph - N/A   Clear
4:53 PM 16.0 °F 6.3 °F -5.1 °F 39% 30.05 in 10.0 mi NNW 6.9 mph - 0.00 in   Mostly Cloudy
5:53 PM 15.1 °F 5.2 °F -5.1 °F 41% 30.05 in 10.0 mi NW 6.9 mph - N/A   Overcast
6:53 PM 15.1 °F 6.4 °F -5.1 °F 41% 30.06 in 10.0 mi WNW 5.8 mph - N/A   Clear
7:53 PM 14.0 °F 8.2 °F -6.0 °F 41% 30.06 in 10.0 mi WSW 3.5 mph - N/A   Clear
8:53 PM 9.0 °F 0.6 °F -7.1 °F 48% 30.07 in 10.0 mi SW 4.6 mph - N/A   Clear
9:53 PM 7.0 °F - -8.0 °F 51% 30.08 in 10.0 mi Calm Calm - N/A   Clear
10:53 PM 9.0 °F 2.4 °F -8.0 °F 46% 30.08 in 10.0 mi NW 3.5 mph - N/A   Clear
11:53 PM 8.1 °F -3.2 °F -9.9 °F 44% 30.09 in 10.0 mi WNW 6.9 mph - N/A   Clear